{"data":{"norad_id":65405,"intl_designator":"2025-192B","name":"STARLINK-34830","alt_names":[],"object_type":"PAYLOAD","status":"ACTIVE","operator":null,"country":"US","launch_date":"2025-08-31","launch_site_code":"AFETR","launch_vehicle":null,"mission":null,"orbit_class":"UNKNOWN","rcs_meters":null,"size_class":null,"mass_kg":null,"dimensions":null,"purposes":["comms"],"wikipedia_slug":null,"has_3d_model":false,"image_url":null,"decayed_at":null,"tle_current":{"epoch":"2026-05-25T05:09:24.157152Z","epoch_age_seconds":52536,"freshness":"FRESH","line1":"1 65405U 25192B   26145.21486293  .00011469  00000+0  38088-3 0  9992","line2":"2 65405  53.1575 236.6831 0000684 282.4338  77.6587 15.31689993 41116","mean_motion":15.31689993,"eccentricity":6.84e-5,"inclination_deg":53.1575,"raan_deg":236.6831,"arg_perigee_deg":282.4338,"mean_anomaly_deg":77.6587,"bstar":0.00038088,"rev_number":4111,"period_min":94.013802178049,"perigee_km":470.30136050745,"apogee_km":471.23829096121,"semimajor_km":6848.9068257343,"source":"CELESTRAK","updated_at":"2026-05-25T13:38:20.799414Z"}}}